DJ3OW-13 Weather Reports


Display with metric or nautical units.
time (UTC)temp
F
wind
direction
speed
MPH
gust
MPH
rain 1hr
in
rain 24hr
in
rain mn
in
humidity
%
barometer
mb
20260510221059 55 180 0.0 2.0 0.00 0.00 0.00 81 1008.9
20260510220117 55 203 1.0 6.0 0.00 0.00 0.00 80 1009.0
20260510215055 55 0.0 0.0 0.00 0.00 0.00 81 1009.1
20260510214053 56 225 0.0 2.0 0.00 0.00 0.00 80 1009.3
20260510213051 56 225 0.0 2.0 0.00 0.00 0.00 79 1009.4
20260510212049 57 225 1.0 4.0 0.00 0.00 0.00 79 1009.4
20260510211047 57 225 1.0 2.0 0.00 0.00 0.00 78 1009.6
20260510210045 57 236 1.0 2.0 0.00 0.00 0.00 77 1009.6
20260510205043 58 265 1.0 4.0 0.00 0.00 0.00 76 1009.7
20260510204041 58 338 0.0 2.0 0.00 0.00 0.00 76 1009.7
20260510203039 58 0.0 2.0 0.00 0.00 0.00 78 1009.9
20260510202037 58 0 0.0 2.0 0.00 0.00 0.00 78 1010.0
20260510201035 59 0 1.0 4.0 0.00 0.00 0.00 77 1010.0
20260510200033 59 23 0.0 2.0 0.00 0.00 0.00 77 1010.0
20260510195031 59 23 1.0 2.0 0.00 0.00 0.00 78 1010.2
20260510194029 59 23 0.0 2.0 0.00 0.00 0.00 79 1010.1
20260510193026 59 0.0 2.0 0.00 0.00 0.00 80 1010.2
20260510192025 59 0.0 0.0 0.00 0.00 0.00 80 1010.3
20260510191023 59 0.0 2.0 0.00 0.00 0.00 80 1010.3
20260510190020 60 23 0.0 2.0 0.00 0.00 0.00 79 1010.4
20260510185019 61 23 0.0 2.0 0.00 0.00 0.00 78 1010.3
20260510184037 62 0.0 0.0 0.00 0.00 0.00 75 1010.4
20260510183014 62 0.0 0.0 0.00 0.00 0.00 74 1010.5
20260510182113 63 0.0 0.0 0.00 0.00 0.00 72 1010.4
20260510181131 64 0.0 2.0 0.00 0.00 0.00 71 1010.5
20260510180109 64 0.0 0.0 0.00 0.00 0.00 71 1010.5
20260510175107 65 23 0.0 2.0 0.00 0.00 0.00 71 1010.7
20260510174105 65 0.0 2.0 0.00 0.00 0.00 70 1010.7
20260510173103 65 23 0.0 2.0 0.00 0.00 0.00 69 1010.8
20260510172100 66 29 0.0 4.0 0.00 0.00 0.00 68 1010.9
20260510171119 67 23 0.0 2.0 0.00 0.00 0.00 67 1011.1
20260510170057 67 23 0.0 2.0 0.00 0.00 0.00 67 1011.1
20260510165054 66 0.0 2.0 0.00 0.00 0.00 68 1011.1
20260510164113 66 23 0.0 2.0 0.00 0.00 0.00 67 1011.3
20260510163050 68 23 0.0 2.0 0.00 0.00 0.00 63 1011.3
20260510162048 69 0 0.0 2.0 0.00 0.00 0.00 62 1011.5
20260510161107 71 23 0.0 2.0 0.00 0.00 0.00 60 1011.7
20260510160104 69 0 1.0 2.0 0.00 0.00 0.00 61 1011.7
20260510155102 68 0 1.0 2.0 0.00 0.00 0.00 64 1011.6
20260510154120 70 4 1.0 2.0 0.00 0.00 0.00 59 1011.8
20260510153038 70 0 0.0 2.0 0.00 0.00 0.00 58 1011.9
20260510152036 70 0 0.0 2.0 0.00 0.00 0.00 58 1012.1
20260510151035 70 23 1.0 2.0 0.00 0.00 0.00 57 1012.2
20260510150032 69 0.0 2.0 0.00 0.00 0.00 57 1012.3
20260510145030 68 0 2.0 2.0 0.00 0.00 0.00 56 1012.3
20260510144048 69 0 1.0 4.0 0.00 0.00 0.00 58 1012.6
20260510143026 70 0 0.0 2.0 0.00 0.00 0.00 59 1012.7
20260510142024 69 0 1.0 2.0 0.00 0.00 0.00 56 1012.8
20260510141102 69 0 1.0 2.0 0.00 0.00 0.00 56 1013.0
20260510140020 70 0 0.0 2.0 0.00 0.00 0.00 56 1013.1
20260510135018 69 0 0.0 2.0 0.00 0.00 0.00 56 1013.3
20260510134016 69 0 0.0 2.0 0.00 0.00 0.00 59 1013.3
20260510133114 69 0 2.0 4.0 0.00 0.00 0.00 55 1013.4
20260510132112 69 0 2.0 4.0 0.00 0.00 0.00 56 1013.5
20260510131130 70 7 1.0 4.0 0.00 0.00 0.00 55 1013.7
20260510130128 68 0 1.0 4.0 0.00 0.00 0.00 58 1013.8
20260510125106 69 0 1.0 2.0 0.00 0.00 0.00 59 1013.8
20260510124124 69 353 2.0 4.0 0.00 0.00 0.00 57 1013.8
20260510123122 69 23 0.0 2.0 0.00 0.00 0.00 56 1014.0
20260510122059 70 343 3.0 6.0 0.00 0.00 0.00 54 1014.1
20260510121118 70 8 1.0 4.0 0.00 0.00 0.00 53 1014.2
20260510120056 71 23 1.0 4.0 0.00 0.00 0.00 59 1014.4
20260510115054 70 42 2.0 6.0 0.00 0.00 0.00 60 1014.4
20260510114112 70 17 0.0 2.0 0.00 0.00 0.00 63 1014.6
20260510113050 67 350 2.0 6.0 0.00 0.00 0.00 62 1014.5
20260510112047 67 351 2.0 4.0 0.00 0.00 0.00 63 1014.6
20260510111106 68 11 2.0 2.0 0.00 0.00 0.00 64 1014.7
20260510110044 68 9 1.0 2.0 0.00 0.00 0.00 65 1014.9
20260510105042 67 13 1.0 2.0 0.00 0.00 0.00 66 1014.9
20260510104039 66 0 1.0 2.0 0.00 0.00 0.00 67 1015.0
20260510103038 65 0 2.0 4.0 0.00 0.00 0.00 68 1015.0
20260510102035 65 6 1.0 2.0 0.00 0.00 0.00 68 1015.1
20260510101033 66 13 1.0 2.0 0.00 0.00 0.00 68 1015.3
20260510100032 65 38 1.0 2.0 0.00 0.00 0.00 68 1015.2
20260510095139 64 41 1.0 6.0 0.00 0.00 0.00 70 1015.3
20260510094057 62 0 1.0 4.0 0.00 0.00 0.00 71 1015.4
20260510093055 62 23 1.0 2.0 0.00 0.00 0.00 71 1015.4
20260510092053 63 5 0.0 2.0 0.00 0.00 0.00 70 1015.6
20260510091051 62 3 1.0 2.0 0.00 0.00 0.00 71 1015.6
20260510090109 61 12 1.0 2.0 0.00 0.00 0.00 71 1015.6
20260510085047 60 15 1.0 2.0 0.00 0.00 0.00 73 1015.7
20260510084045 60 0 1.0 4.0 0.00 0.00 0.00 74 1015.7
20260510083043 59 0 1.0 2.0 0.00 0.00 0.00 75 1015.7
20260510082121 59 0 1.0 2.0 0.00 0.00 0.00 74 1015.7
20260510081039 58 0 1.0 4.0 0.00 0.00 0.00 75 1015.8
20260510080037 58 3 1.0 2.0 0.00 0.00 0.00 75 1015.9
20260510075035 57 0 1.0 2.0 0.00 0.00 0.00 75 1015.8
20260510074053 57 23 0.0 2.0 0.00 0.00 0.00 76 1015.8
20260510073051 56 23 0.0 2.0 0.00 0.00 0.00 77 1016.0
20260510072029 54 23 0.0 2.0 0.00 0.00 0.00 79 1016.0
20260510071027 54 23 0.0 2.0 0.00 0.00 0.00 80 1016.1
20260510070025 53 23 1.0 4.0 0.00 0.00 0.00 81 1016.1
20260510065023 52 23 0.0 2.0 0.00 0.00 0.00 85 1016.0
20260510064021 51 23 1.0 2.0 0.00 0.00 0.00 86 1016.0
20260510063019 50 0.0 2.0 0.00 0.00 0.00 87 1015.9
20260510062017 49 0.0 0.0 0.00 0.00 0.00 88 1016.0
20260510061015 48 0.0 0.0 0.00 0.00 0.00 91 1016.0
20260510060113 47 0.0 0.0 0.00 0.00 0.00 92 1016.1
20260510055111 46 0.0 0.0 0.00 0.00 0.00 95 1016.1
20260510054109 45 0.0 0.0 0.00 0.00 0.00 96 1016.1
20260510053107 45 0.0 0.0 0.00 0.00 0.00 96 1016.0
20260510052105 44 0.0 0.0 0.00 0.00 0.00 96 1016.1
20260510051123 44 45 0.0 2.0 0.00 0.00 0.00 97 1016.1
20260510050101 43 0.0 0.0 0.00 0.00 0.00 97 1016.2
20260510045059 43 0.0 0.0 0.00 0.00 0.00 96 1016.2
20260510044117 42 0.0 0.0 0.00 0.00 0.00 96 1016.3
20260510043055 42 0.0 0.0 0.00 0.00 0.00 96 1016.4
20260510042053 42 0.0 0.0 0.00 0.00 0.00 96 1016.4
20260510041051 42 0.0 0.0 0.00 0.00 0.00 96 1016.3
20260510040049 42 0.0 0.0 0.00 0.00 0.00 96 1016.4
20260510035107 42 0.0 0.0 0.00 0.00 0.00 96 1016.4
20260510034045 42 0.0 2.0 0.00 0.00 0.00 96 1016.4
20260510033043 43 0.0 0.0 0.00 0.00 0.00 96 1016.5
20260510032101 42 0.0 0.0 0.00 0.00 0.00 95 1016.6
20260510031059 42 0.0 0.0 0.00 0.00 0.00 95 1016.6
20260510030037 42 0.0 0.0 0.00 0.00 0.00 94 1016.7
20260510025035 42 0.0 2.0 0.00 0.00 0.00 94 1016.6
20260510024033 43 45 0.0 2.0 0.00 0.00 0.00 94 1016.7
20260510023030 43 0.0 0.0 0.00 0.00 0.00 93 1016.8
20260510022029 44 0.0 0.0 0.00 0.00 0.00 93 1016.8
20260510021027 44 0.0 0.0 0.00 0.00 0.00 92 1017.0
20260510020025 44 0.0 0.0 0.00 0.00 0.00 91 1017.1
20260510015103 45 0.0 0.0 0.00 0.00 0.00 90 1017.2
20260510014021 46 45 0.0 2.0 0.00 0.00 0.00 89 1017.3
20260510013019 46 45 1.0 2.0 0.00 0.00 0.00 91 1017.4
20260510012017 45 45 1.0 2.0 0.00 0.00 0.00 93 1017.4
20260510011115 44 23 0.0 2.0 0.00 0.00 0.00 92 1017.6
20260510010153 46 23 0.0 2.0 0.00 0.00 0.00 89 1017.6
20260510005111 47 45 0.0 2.0 0.00 0.00 0.00 88 1017.6
20260510004109 47 45 1.0 2.0 0.00 0.00 0.00 88 1017.6
20260510003106 47 45 0.0 2.0 0.00 0.00 0.00 89 1017.8
20260510002104 47 45 1.0 2.0 0.00 0.00 0.00 89 1018.0
20260510001103 47 45 1.0 2.0 0.00 0.00 0.00 89 1018.1
20260510000101 47 0.0 0.0 0.00 0.00 0.00 89 1018.5
20260509235059 47 45 0.0 2.0 0.00 0.00 0.00 90 1018.3
20260509234116 47 68 0.0 2.0 0.00 0.00 0.00 92 1018.4
20260509233055 47 68 0.0 2.0 0.00 0.00 0.00 95 1018.6
20260509232052 46 68 0.0 2.0 0.00 0.00 0.00 95 1018.8
20260509231050 46 0.0 0.0 0.00 0.00 0.00 95 1018.8
20260509230048 46 0.0 0.0 0.00 0.00 0.00 95 1018.9
20260509225047 46 0.0 2.0 0.00 0.00 0.00 94 1019.1
20260509224044 47 0.0 0.0 0.00 0.00 0.00 94 1019.0
20260509223102 47 0.0 0.0 0.00 0.00 0.00 94 1019.0
20260509222040 47 0.0 2.0 0.00 0.00 0.00 93 1019.0